Location: Arbon
(43.0005°N, 0.7472°E)
Time: 21:43:49
(UTC+00:00)

Explorer 7 - Pass Details

Date: 04 December 2020
Orbit: 484 x 678 km, 50.3° (Epoch: 25 January)

Event Time Altitude Azimuth Distance (km) Brightness Sun altitude
Rises 06:39:04 0° 292° (WNW) 2,755 - -6.2°
Exits shadow 06:40:53 - 284° (WNW) 2,095 9.1 -5.9°
Reaches altitude 10° 06:41:43 10° 278° (W) 1,817 8.9 -5.7°
Maximum altitude 06:44:58 23° 226° (SW) 1,161 8.3 -5.2°
Drops below altitude 10° 06:48:05 10° 173° (S) 1,727 9.9 -4.7°
Sets 06:50:32 0° 158° (SSE) 2,582 11.1 -4.3°
